User: anonymous   Login
Location: Marlborough
(51.4223°N, 1.7415°W)
Time: 08:21:14
(UTC+01:00)
Language:

ISS - Orbit

View from above orbital plane
View from above orbital plane
View from above satellite
View from above satellite

Ground track
Ground track

The orbit data is extracted from the following two-line orbital elements,

1 25544U 98067A   24114.10387731  .00034668  00000-0  59775-3 0  9995
2 25544  51.6413 228.5336 0004775  87.7280 265.0973 15.50694515449994
Epoch (UTC): 23 April 2024 02:29:35
Eccentricity: 0.0004775
inclination: 51.6413°
perigee height: 411 km
apogee height: 418 km
right ascension of ascending node: 228.5336°
argument of perigee: 87.7280°
revolutions per day: 15.50694515
mean anomaly at epoch: 265.0973°
orbit number at epoch: 44999

The dashed part of the orbit path shows where the satellite is in the earth's shadow,  

DLR